Search your local weather  

 

Hazardous Weather Conditions

No active alerts for HOUSTON, TEXAS

Current Conditions: HOUSTON, TEXAS

Fair


62.0 F

Last Updated on Mar 31 2020, 8:53 pm CDT
Humidity: 62%
Wind Speed: N 4.6 mph
Barometer 30.03 in
Dewpoint: 48.9 F
Visibility: 10.00 mi
Precip: --
Heat Index: NA
Wind Chill: 62 F
Current conditions at:

Houston, Hooks Memorial Airport, TX (KDWH)

Lat: 30.0675 Lon: -95.55611

Local Radar Image active severe weather and emergency alerts image image weather storm and storm spotter reports image weather observation monitoring service image
Local
Radar
Active
Alerts
Storm Reports Weather
Monitoring

5 Day Forecast for HOUSTON, TEXAS (77002)

Tuesday

Mostly Cloudy

High 79 °F
Tuesday
Night
Mostly Clear

Low 56 °F
Wednesday

Partly Sunny

High 75 °F
Wednesday
Night
Mostly Cloudy

Low 63 °F
Thursday

Chance of T-storms

High 78 °F
Thursday
Night
Chance of T-storms

Low 68 °F
Friday

Chance of T-storms

High 81 °F
Friday
Night
T-storms Likely

Low 69 °F
Saturday

Chance of T-storms

High 79 °F

Sign-up For Email & Text Message Weather Alert Notification Services


Advertise Here

Observation History for HOUSTON, TEXAS


Time Wind
(mph)
Vis
(mi)
Weather Precip (in) Temperature (F) Relative
Humidity
Wind
Chill
(F)
Heat
Index
(F)
Pressure
Air Dwpt altimeter
(in)
sea level
(mb)
8:53 pm CDT N 4.6 10.00 Fair -- 62.0 48.9 62% 62 NA 30.03 1016.7
7:53 pm CDT N 6.9 10.00 Fair -- 65.0 48.9 56% NA NA 30.01 1016.2
6:53 pm CDT N 8.1 10.00 Fair -- 69.0 50.0 51% NA NA 29.99 1015.3
5:53 pm CDT N 8.1 10.00 Fair -- 70.0 50.0 49% NA NA 29.98 1015.0
4:53 pm CDT N 11.5 10.00 A Few Clouds -- 73.0 51.1 46% NA NA 29.97 1014.5
3:53 pm CDT N 10.4 G 18.4 10.00 Fair -- 73.0 51.1 46% NA NA 29.97 1014.5
2:53 pm CDT N 13.8 G 19.6 10.00 A Few Clouds -- 72.0 51.1 48% NA NA 29.98 1015.1
1:53 pm CDT N 10.4 10.00 Fair -- 72.0 52.0 50% NA NA 30.00 1015.7
12:53 pm CDT N 10.4 G 19.6 10.00 A Few Clouds -- 69.0 51.1 53% NA NA 30.02 1016.2
11:53 am CDT N 15.0 G 20.7 10.00 Partly Cloudy -- 66.0 52.0 61% NA NA 30.02 1016.5
10:53 am CDT N 11.5 10.00 Overcast -- 63.0 53.1 70% 62 NA 30.03 1016.5
9:53 am CDT N 9.2 10.00 Overcast -- 63.0 55.0 76% 62 NA 30.00 1015.6
8:53 am CDT N 11.5 G 20.7 10.00 Overcast -- 66.0 57.9 75% NA NA 29.97 1014.7
7:53 am CDT NW 8.1 G 17.3 10.00 Fair -- 67.0 62.1 84% NA NA 29.93 1013.2
6:53 am CDT NW 8.1 10.00 Mostly Cloudy -- 70.0 64.0 82% NA NA 29.89 1012.0
5:53 am CDT W 6.9 8.00 Mostly Cloudy -- 71.0 66.9 87% NA NA 29.88 1011.4
4:53 am CDT W 8.1 8.00 Overcast -- 72.0 68.0 87% NA NA 29.86 1010.7
3:53 am CDT W 8.1 9.00 Overcast -- 72.0 68.0 87% NA NA 29.86 1011.0
2:53 am CDT SW 6.9 8.00 Overcast -- 72.0 68.0 87% NA NA 29.87 1011.1
1:53 am CDT SW 8.1 10.00 Overcast -- 73.0 68.0 84% NA NA 29.86 1010.9
12:53 am CDT SW 5.8 10.00 Overcast -- 74.0 68.0 82% NA NA 29.88 1011.4
11:53 pm CDT SW 6.9 10.00 Overcast -- 74.0 66.9 79% NA NA 29.87 1011.3
10:53 pm CDT S 6.9 10.00 Overcast -- 75.0 66.0 74% NA NA 29.87 1011.3
9:53 pm CDT S 9.2 10.00 Partly Cloudy -- 75.0 64.9 71% NA NA 29.87 1011.1

Regional Weather Observation

John Dunn Helistop, TX (KMCJ)

Overcast
57.0 F

Houston, Houston Hobby Airport, TX (KHOU)

Partly Cloudy
68.0 F

Houston Southwest Airport, TX (KAXH)

Fair
65.0 F

Conroe, Montgomery County Airport, TX (KCXO)

Fair
56.0 F

Houston, Pearland Regional Airport, TX (KLVJ)

Fair
69.0 F

Cleveland, TX (K6R3)

Fair
57.0 F

Advertise Here

Advertise Here